Regional Weather Roundup
Issued by NWS Bismarck, ND

Home | Current Version | Previous Version | Text Only | Print | Product List | Glossary On
Versions: 1 2 3 4 5 6 7 8 9 10 11 12 13 14 15 16 17 18 19 20 21 22 23 24 25 26 27 28 29 30 31 32 33 34 35 36 37 38 39 40 41 42 43 44 45 46 47 48 49 50
089
ASUS43 KBIS 240902
RWRBIS

NWR BROADCAST TEXT
NATIONAL WEATHER SERVICE BISMARCK ND
400 AM CDT WED AUG 24 2016

NOTE: "FAIR" INDICATES FEW OR NO CLOUDS BELOW 12,000 FEET WITH NO
SIGNIFICANT WEATHER AND/OR OBSTRUCTIONS TO VISIBILITY.


CITY           SKY/WX    TMP DP  RH WIND       PRES   REMARKS
WILLISTON      PTCLDY    58  47  66 W21G29    29.94F
MINOT          CLEAR     60  49  66 W15       29.87R
MINOT AFB      CLEAR     55  49  79 W10       29.86R
BISMARCK       CLEAR     58  47  66 W10       29.96R
DICKINSON      CLEAR     55  47  74 W16       30.00R
GARRISON         N/A     54  49  83 W8        29.91R
HETTINGER ARPT CLEAR     49  43  80 W7        30.06R
JAMESTOWN      CLEAR     55  49  80 W5        29.88S
CARRINGTON     FAIR      54  50  87 W10       29.90R
HAZEN          FAIR      52  46  82 SW5       29.97R
OAKES            N/A    N/A N/A N/A MISG        N/A
STANLEY        FAIR      54  50  87 W14G21    29.92S
$$

CITY           SKY/WX    TMP DP  RH WIND       PRES   REMARKS
GRAND FORKS    CLEAR     58  53  84 W6        29.80R
GRAND FORKS AF CLEAR     58  53  81 W8        29.80F
DEVILS LAKE    CLEAR     62  51  67 W13       29.85R
FARGO          CLEAR     61  53  75 W6        29.83R
CAVALIER       FAIR      55  52  88 W6        29.78S
GRAFTON        FAIR      57  55  94 W8        29.80S
GWINNER        FAIR      55  54  94 W7        29.88S
LANGDON        CLOUDY    52  52 100 SW6       29.81S
ROLLA          FAIR      50  48  93 S5        29.83S
$$

CITY           SKY/WX    TMP DP  RH WIND       PRES   REMARKS
ABERDEEN       CLOUDY    57  47  69 NW6       29.91R
MOBRIDGE       PTCLDY    56  45  66 N8        29.97R
BUFFALO          N/A     55  44  66 W15       30.03S
RAPID CITY     CLOUDY    60  33  36 N15       30.11R
GLASGOW        MOCLDY    55  49  80 W21G31    30.04S
SIDNEY         CLEAR     58  48  69 W17       29.99R
WOLF POINT     CLEAR     57  50  77 W12       30.02R
GLENDIVE       CLEAR     56  49  77 W14       30.06R
MILES CITY     CLEAR     56  44  64 NW13      30.11F
BAKER          CLEAR     54  45  71 W13       30.09S
$$

CITY           SKY/WX    TMP DP  RH WIND       PRES   REMARKS
BILLINGS       CLEAR     55  42  61 NW10      30.22F
GREAT FALLS    CLOUDY    53  45  74 N5        30.30R
$$





USA.gov is the U.S. government's official web portal to all federal, state and local government web resources and services.